カタログに戻る

STARLINK-34229

運用中通信VLEO
NORAD 64250·PAYLOAD·🇺🇸 United States

打ち上げ Jun 3, 2025 から Cape Canaveral Space Force Station

Loading…

次のパス (今後24時間)

TLE

最新Source: CelesTrak SupGP

元期: Sep 15, 2026, 03:12 UTC

1 64250C 25119T   26258.13381944  .00034615  00000+0  12536-2 0  2586
2 64250  43.0030 317.4577 0001524 267.9989 286.8249 15.27565459    14

AllMySatでSTARLINK-34229をリアルタイム追跡

Download on the App Store